Zurück zum Katalog

BREEZE-M DEB

TANK

AktivHEO
NORAD 33454·DEBRIS·🇷🇺 Russia

Gestartet Dec 10, 2008 von Baikonur Cosmodrome

Loading…

Nächste Überflüge (nächste 24 Stunden)

TLE

AktuellSource: Space-Track

Epoche: Sep 14, 2026, 13:54 UTC

1 33454U 08063B   26257.57938539  .00001967  00000-0  36213-3 0  9998
2 33454  49.4680  11.9194 5343972 330.3907   7.8628  5.05928439317518

Verfolge BREEZE-M DEB in Echtzeit mit AllMySat

Download on the App Store